Location: Unspecified
(54.1780°N, 0.0000°E)
Time: 20:08:07
(UTC+00:00)

Altair - Pass Details

Date: 26 June 2019
Orbit: 1501 x 1683 km, 47.2° (Epoch: 20 July)

Event Time Altitude Azimuth Distance (km) Brightness Sun altitude
Rises 16:49:37 0° 182° (S) 4,661 10.1 29.4°
Reaches altitude 10° 16:54:09 10° 162° (SSE) 3,711 9.4 28.7°
Maximum altitude 16:59:17 16° 128° (SE) 3,278 8.9 27.9°
Drops below altitude 10° 17:04:31 10° 95° (E) 3,797 9.1 27.2°
Sets 17:09:12 0° 76° (ENE) 4,823 9.6 26.5°
